Date String (YYYY-MM-DD hh:mm:ss) UTC,Instrument flags,absolute air pressure of the measurement (hPa),sample flow rate (lpm),inlet stack bypass flow (lpm),air temperature of the measurement (°C),ambient temperature measured by the external sensor (°C),aerosol sample conditioner tube jacket temperature (°C),OPC LED temperature (°C),internal box temperature (°C),relative humidity of the measurement (%),span deviation,mass concentration of particles derived from Lorenz-Mie calculation of OPC scattering (μg/m³),mass concentration of particles derived from Lorenz-Mie calculation of OPC scattering (μg/m³),mass concentration of particles derived from Lorenz-Mie calculation of OPC scattering (μg/m³)
DateTimeUTC,F1_M11,P_M11,Q1_M11,Q2_M11,T1_M11,T2_M11,T3_M11,T4_M11,T5_M11,U1_M11,ZSPAN_M11,X2_M11,X0_M11,X1_M11
2023-12-02 11:00:00,SystemResetWarning,0820.6,5.00,000.00,018.8,017.7,000.0,027.2,020.0,15.1,0002.3,0015.52,0022.02,0014.68
2023-12-02 11:01:00,SystemResetWarning,0820.5,5.00,000.00,018.7,017.7,000.0,027.2,020.0,15.1,0001.9,0015.10,0020.50,0014.30
2023-12-02 11:02:00,SystemResetWarning,0820.4,5.01,000.00,018.7,017.7,000.0,027.2,020.0,15.2,0001.6,0014.86,0019.83,0014.07
2023-12-02 11:03:00,SystemResetWarning,0820.9,5.00,000.00,018.7,017.7,000.0,027.2,020.0,15.2,0002.0,0014.69,0019.58,0013.93
2023-12-02 11:04:00,SystemResetWarning,0820.7,5.00,000.00,018.7,017.7,000.0,027.2,020.0,14.7,0002.2,0014.78,0019.67,0014.01
2023-12-02 11:05:00,SystemResetWarning,0820.7,5.00,000.00,018.7,017.7,000.0,027.2,020.1,14.1,0002.2,0014.93,0019.81,0014.18
2023-12-02 11:06:00,SystemResetWarning,0820.4,5.01,000.00,018.8,018.0,000.0,027.2,020.5,13.4,0002.1,0015.02,0019.27,0014.27
2023-12-02 11:07:00,SystemResetWarning,0820.5,5.01,000.00,019.0,018.8,000.0,027.3,021.0,12.9,0001.7,0015.12,0019.72,0014.37
2023-12-02 11:08:00,SystemResetWarning,0820.5,4.98,000.00,019.1,019.0,000.0,027.3,020.8,12.5,0001.9,0015.24,0020.51,0014.46
2023-12-02 11:09:00,SystemResetWarning,0820.6,5.00,000.00,019.1,018.9,000.0,027.3,020.6,12.2,0001.8,0015.28,0021.07,0014.51
2023-12-02 11:10:00,SystemResetWarning,0820.7,5.01,000.00,019.1,018.9,000.0,027.3,020.5,12.0,0001.5,0015.26,0020.98,0014.51
2023-12-02 11:11:00,SystemResetWarning,0820.8,5.00,000.00,019.1,018.7,000.0,027.3,020.3,12.8,0001.4,0014.96,0020.61,0014.23
2023-12-02 11:12:00,SystemResetWarning,0820.9,5.00,000.00,019.0,018.5,000.0,027.3,020.1,13.3,0001.4,0014.38,0020.39,0013.68
2023-12-02 11:13:00,SystemResetWarning,0821.0,5.00,000.00,019.0,018.4,000.0,027.3,020.0,13.0,0001.5,0013.63,0019.70,0012.99
2023-12-02 11:14:00,SystemResetWarning,0820.6,5.00,000.00,018.9,018.2,000.0,027.3,020.0,12.8,0001.6,0012.96,0018.99,0012.35
2023-12-02 11:15:00,SystemResetWarning,0820.5,5.00,000.00,018.9,018.1,000.0,027.3,020.0,12.7,0001.4,0012.13,0017.84,0011.60
2023-12-02 11:16:00,SystemResetWarning,0820.5,5.00,000.00,018.8,018.0,000.0,027.3,020.0,12.6,0001.5,0011.28,0016.60,0010.77
2023-12-02 11:17:00,SystemResetWarning,0820.7,5.00,000.00,018.8,018.0,000.0,027.3,020.0,12.9,0001.1,0010.43,0015.68,0009.91
2023-12-02 11:18:00,SystemResetWarning,0820.6,4.99,000.00,018.8,018.0,000.0,027.3,020.0,13.5,0000.0,0009.88,0015.02,0009.39
2023-12-02 11:19:00,SystemResetWarning,0820.6,5.00,000.00,018.8,017.9,000.0,027.3,020.0,13.6,0000.0,0009.54,0013.91,0009.10
2023-12-02 11:20:00,SystemResetWarning,0820.6,5.00,000.00,018.8,017.9,000.0,027.3,020.0,13.5,0000.0,0008.89,0013.29,0008.48
2023-12-02 11:21:00,SystemResetWarning,0820.6,5.00,000.00,018.8,017.9,000.0,027.3,020.0,13.7,0000.0,0008.20,0012.60,0007.81
2023-12-02 11:22:00,SystemResetWarning,0820.6,5.00,000.00,018.8,017.9,000.0,027.3,020.0,14.0,0000.0,0007.84,0012.39,0007.43
2023-12-02 11:23:00,SystemResetWarning,0820.6,5.01,000.00,018.8,017.8,000.0,027.3,020.0,13.9,0000.0,0007.69,0011.86,0007.29
2023-12-02 11:24:00,SystemResetWarning,0820.6,5.00,000.00,018.8,017.8,000.0,027.3,020.0,13.6,0001.0,0007.85,0012.01,0007.46
2023-12-02 11:25:00,SystemResetWarning,0820.6,5.00,000.00,018.8,017.7,000.0,027.3,020.0,13.5,0002.2,0008.32,0013.29,0007.91
2023-12-02 11:26:00,SystemResetWarning,0820.6,5.00,000.00,018.8,017.7,000.0,027.3,020.0,13.5,0000.6,0008.75,0013.73,0008.31
2023-12-02 11:27:00,SystemResetWarning,0820.6,5.00,000.00,018.8,017.7,000.0,027.3,020.0,13.3,0002.0,0009.16,0014.05,0008.73
2023-12-02 11:28:00,SystemResetWarning,0820.6,5.01,000.00,018.7,017.7,000.0,027.3,020.0,13.2,0002.2,0009.80,0014.78,0009.35
2023-12-02 11:29:00,SystemResetWarning,0820.6,5.00,000.00,018.7,017.7,000.0,027.3,020.0,13.2,0002.6,0010.21,0015.25,0009.75
2023-12-02 11:30:00,SystemResetWarning,0820.6,5.00,000.00,018.7,017.7,000.0,027.3,020.0,13.1,0003.1,0010.25,0015.61,0009.78
2023-12-02 11:31:00,SystemResetWarning,0820.5,5.00,000.00,018.7,017.7,000.0,027.3,020.0,12.9,0003.1,0010.39,0015.48,0009.92
2023-12-02 11:32:00,SystemResetWarning,0820.6,5.00,000.00,018.7,017.7,000.0,027.3,020.0,12.7,0003.3,0010.68,0015.70,0010.19
2023-12-02 11:33:00,SystemResetWarning,0820.6,5.00,000.00,018.7,017.6,000.0,027.3,020.0,12.7,0003.3,0010.94,0015.92,0010.45
2023-12-02 11:34:00,SystemResetWarning,0820.6,5.00,000.00,018.7,017.7,000.0,027.3,020.0,12.7,0003.1,0011.18,0016.32,0010.65
2023-12-02 11:35:00,SystemResetWarning,0820.7,5.00,000.00,018.7,017.7,000.0,027.3,020.0,12.7,0003.0,0011.28,0016.39,0010.73
2023-12-02 11:36:00,SystemResetWarning,0820.7,5.00,000.00,018.7,017.6,000.0,027.3,020.0,12.9,0003.3,0011.12,0015.34,0010.57
2023-12-02 11:37:00,SystemResetWarning,0820.7,5.00,000.00,018.7,017.6,000.0,027.3,020.0,13.1,0003.4,0010.95,0015.11,0010.39
2023-12-02 11:38:00,SystemResetWarning,0820.7,4.99,000.00,018.7,017.6,000.0,027.3,020.0,13.2,0003.3,0010.75,0014.93,0010.19
2023-12-02 11:39:00,SystemResetWarning,0820.6,5.00,000.00,018.7,017.6,000.0,027.3,020.0,13.1,0003.5,0010.36,0014.79,0009.82
2023-12-02 11:40:00,SystemResetWarning,0820.7,5.01,000.00,018.7,017.6,000.0,027.3,020.0,13.0,0003.4,0009.81,0014.65,0009.29
2023-12-02 11:41:00,SystemResetWarning,0820.7,5.01,000.00,018.7,017.6,000.0,027.3,020.0,13.0,0003.4,0009.37,0013.96,0008.87
2023-12-02 11:42:00,SystemResetWarning,0820.7,5.00,000.00,018.7,017.6,000.0,027.3,020.0,13.0,0003.1,0009.13,0013.30,0008.62
2023-12-02 11:43:00,SystemResetWarning,0820.7,5.00,000.00,018.7,017.6,000.0,027.2,020.0,13.0,0002.6,0009.01,0013.20,0008.52
2023-12-02 11:44:00,SystemResetWarning,0820.7,5.00,000.00,018.7,017.6,000.0,027.2,020.0,12.9,0003.1,0009.01,0013.15,0008.55
2023-12-02 11:45:00,SystemResetWarning,0820.8,5.00,000.00,018.7,017.6,000.0,027.3,020.0,13.1,0002.9,0009.12,0013.14,0008.68
2023-12-02 11:46:00,SystemResetWarning,0820.8,5.00,000.00,018.7,017.6,000.0,027.3,020.0,13.5,0002.6,0009.12,0013.06,0008.70
2023-12-02 11:47:00,SystemResetWarning,0820.8,4.99,000.00,018.7,017.5,000.0,027.3,020.0,13.4,0002.7,0009.12,0013.12,0008.69
2023-12-02 11:48:00,SystemResetWarning,0820.8,5.00,000.00,018.7,017.5,000.0,027.2,020.2,13.2,0002.7,0009.16,0013.23,0008.74
2023-12-02 11:49:00,SystemResetWarning,0820.8,5.02,000.00,018.8,018.0,000.0,027.2,020.6,13.0,0002.8,0009.26,0013.30,0008.85
2023-12-02 11:50:00,SystemResetWarning,0820.8,4.99,000.00,018.9,018.7,000.0,027.2,020.8,12.9,0002.9,0009.37,0013.14,0008.97
2023-12-02 11:51:00,SystemResetWarning,0820.8,4.99,000.00,019.0,018.7,000.0,027.2,020.6,12.8,0002.8,0009.47,0012.69,0009.10
2023-12-02 11:52:00,SystemResetWarning,0820.8,5.01,000.00,019.0,018.7,000.0,027.2,020.4,12.7,0002.5,0009.72,0013.10,0009.33
2023-12-02 11:53:00,SystemResetWarning,0820.8,5.01,000.00,019.0,018.6,000.0,027.2,020.3,12.7,0002.1,0010.14,0013.86,0009.75
2023-12-02 11:54:00,SystemResetWarning,0820.8,4.98,000.00,018.9,018.4,000.0,027.2,020.2,12.8,0002.3,0010.21,0013.92,0009.80
2023-12-02 11:55:00,SystemResetWarning,0820.8,5.00,000.00,018.9,018.2,000.0,027.2,020.0,12.8,0002.2,0010.03,0013.67,0009.63
2023-12-02 11:56:00,SystemResetWarning,0820.8,5.01,000.00,018.9,018.1,000.0,027.2,020.0,12.8,0002.6,0009.80,0013.41,0009.40
2023-12-02 11:57:00,SystemResetWarning,0820.8,5.00,000.00,018.8,018.1,000.0,027.2,020.0,12.8,0003.0,0009.72,0013.56,0009.31
2023-12-02 11:58:00,SystemResetWarning,0820.9,5.00,000.00,018.8,018.0,000.0,027.2,020.0,12.7,0003.3,0009.64,0013.58,0009.24
2023-12-02 11:59:00,SystemResetWarning,0820.8,5.01,000.00,018.8,018.0,000.0,027.2,020.0,12.7,0003.1,0009.56,0013.41,0009.18
